Location: Zengebe
(1.4833°N, 32.5167°E)
Time: 21:59:41
(UTC+00:00)

SJ-12 - Pass Details

Date: 07 June 2020
Orbit: 569 x 584 km, 97.7° (Epoch: 10 July)

Event Time Altitude Azimuth Distance (km) Brightness Sun altitude
Rises 02:25:03 0° 16° (NNE) 2,792 8.0 -18.6°
Reaches altitude 10° 02:27:13 10° 19° (NNE) 1,895 7.2 -18.1°
Maximum altitude 02:31:17 65° 101° (E) 642 4.3 -17.2°
Drops below altitude 10° 02:35:23 10° 183° (S) 1,901 6.3 -16.3°
Enters shadow 02:35:52 - 184° (S) 2,098 6.5 -16.2°
